Time,TemperatureF,DewpointF,PressureIn,WindDirection,WindDirectionDegrees,WindSpeedMPH,WindSpeedGustMPH,Humidity,HourlyPrecipIn,Conditions,Clouds,dailyrainin,SolarRadiationWatts/m^2,SoftwareType,DateUTC
2013-08-18 00:01:00,82.7,76.7,30.04,ESE,107,4.0,5.0,82,0.00,,FEW020,0.00,125.00,VWS V14.01,2013-08-18 04:01:00,
2013-08-18 00:06:00,82.7,76.7,30.03,East,89,4.0,6.0,82,0.00,,FEW020,0.00,125.00,VWS V14.01,2013-08-18 04:06:00,
2013-08-18 00:11:00,82.6,76.6,30.03,ENE,66,3.0,5.0,82,0.00,,FEW020,0.00,125.00,VWS V14.01,2013-08-18 04:11:00,
2013-08-18 00:16:00,82.6,76.6,30.04,ESE,109,3.0,5.0,82,0.00,,FEW020,0.00,125.00,VWS V14.01,2013-08-18 04:16:00,
2013-08-18 00:21:00,82.5,76.4,30.03,East,88,3.0,4.0,82,0.00,,FEW020,0.00,125.00,VWS V14.01,2013-08-18 04:21:00,
2013-08-18 00:26:00,82.5,76.4,30.03,ENE,67,4.0,4.0,82,0.00,,FEW020,0.00,125.00,VWS V14.01,2013-08-18 04:26:00,
2013-08-18 00:31:00,82.5,76.4,30.04,East,99,3.0,4.0,82,0.00,,FEW020,0.00,125.00,VWS V14.01,2013-08-18 04:31:00,
2013-08-18 00:36:00,82.5,76.4,30.04,ESE,108,0.0,1.0,82,0.00,,FEW020,0.00,125.00,VWS V14.01,2013-08-18 04:36:00,
2013-08-18 00:41:00,82.5,76.4,30.03,East,89,3.0,3.0,82,0.00,,FEW020,0.00,125.00,VWS V14.01,2013-08-18 04:41:00,
2013-08-18 00:46:00,82.4,76.4,30.03,East,96,2.0,3.0,82,0.00,,FEW020,0.00,127.00,VWS V14.01,2013-08-18 04:46:00,
2013-08-18 00:51:00,82.4,76.4,30.03,ESE,107,1.0,2.0,82,0.00,,FEW020,0.00,125.00,VWS V14.01,2013-08-18 04:51:00,
2013-08-18 00:56:00,82.3,76.3,30.03,ESE,117,4.0,4.0,82,0.00,,FEW020,0.00,125.00,VWS V14.01,2013-08-18 04:56:00,
2013-08-18 01:01:00,82.3,76.3,30.03,East,96,0.0,3.0,82,0.00,,FEW020,0.00,127.00,VWS V14.01,2013-08-18 05:01:00,
2013-08-18 01:06:00,82.3,76.3,30.02,East,81,0.0,1.0,82,0.00,,FEW020,0.00,125.00,VWS V14.01,2013-08-18 05:06:00,
2013-08-18 01:11:00,82.3,76.3,30.03,East,92,2.0,3.0,82,0.00,,FEW020,0.00,127.00,VWS V14.01,2013-08-18 05:11:00,
2013-08-18 01:16:00,82.2,76.2,30.03,East,85,3.0,3.0,82,0.00,,FEW020,0.00,127.00,VWS V14.01,2013-08-18 05:16:00,
2013-08-18 01:21:00,82.2,76.2,30.03,East,86,1.0,1.0,82,0.00,,FEW020,0.00,127.00,VWS V14.01,2013-08-18 05:21:00,
2013-08-18 01:26:00,82.1,76.1,30.02,East,82,2.0,2.0,82,0.00,,FEW020,0.00,127.00,VWS V14.01,2013-08-18 05:26:00,
2013-08-18 01:31:00,82.1,76.1,30.03,East,87,2.0,3.0,82,0.00,,FEW020,0.00,125.00,VWS V14.01,2013-08-18 05:31:00,
2013-08-18 01:36:00,82.1,76.1,30.03,East,87,3.0,3.0,82,0.00,,FEW020,0.00,127.00,VWS V14.01,2013-08-18 05:36:00,
2013-08-18 01:41:00,82.1,76.1,30.03,East,93,2.0,4.0,82,0.00,,FEW020,0.00,125.00,VWS V14.01,2013-08-18 05:41:00,
2013-08-18 01:46:00,82.1,76.1,30.03,East,92,1.0,3.0,82,0.00,,FEW020,0.00,125.00,VWS V14.01,2013-08-18 05:46:00,
2013-08-18 01:51:00,82.1,76.1,30.02,East,92,1.0,1.0,82,0.00,,FEW020,0.00,125.00,VWS V14.01,2013-08-18 05:51:00,
2013-08-18 01:56:00,82.0,76.0,30.02,East,92,0.0,2.0,82,0.00,,FEW020,0.00,127.00,VWS V14.01,2013-08-18 05:56:00,
2013-08-18 02:01:00,82.0,76.0,30.02,East,92,0.0,1.0,82,0.00,,FEW020,0.00,125.00,VWS V14.01,2013-08-18 06:01:00,
2013-08-18 02:06:00,82.0,76.3,30.02,East,92,2.0,2.0,83,0.00,,FEW020,0.00,125.00,VWS V14.01,2013-08-18 06:06:00,
2013-08-18 02:11:00,81.9,76.2,30.02,ENE,76,1.0,2.0,83,0.00,,FEW020,0.00,125.00,VWS V14.01,2013-08-18 06:11:00,
2013-08-18 02:16:00,81.9,76.2,30.02,East,80,2.0,2.0,83,0.00,,FEW020,0.00,125.00,VWS V14.01,2013-08-18 06:16:00,
2013-08-18 02:21:00,81.9,76.2,30.01,East,80,0.0,2.0,83,0.00,,FEW020,0.00,125.00,VWS V14.01,2013-08-18 06:21:00,
2013-08-18 02:26:00,81.9,76.2,30.01,East,80,0.0,1.0,83,0.00,,FEW020,0.00,127.00,VWS V14.01,2013-08-18 06:26:00,
2013-08-18 02:31:00,81.9,76.2,30.01,East,80,0.0,0.0,83,0.00,,FEW020,0.00,125.00,VWS V14.01,2013-08-18 06:31:00,
2013-08-18 02:36:00,81.9,76.6,30.01,East,80,3.0,3.0,84,0.00,,FEW020,0.00,125.00,VWS V14.01,2013-08-18 06:36:00,
2013-08-18 02:41:00,81.8,76.5,30.00,East,80,0.0,1.0,84,0.00,,FEW020,0.00,125.00,VWS V14.01,2013-08-18 06:41:00,
2013-08-18 02:46:00,81.8,76.5,30.00,East,81,0.0,0.0,84,0.00,,FEW020,0.00,125.00,VWS V14.01,2013-08-18 06:46:00,
2013-08-18 02:51:00,81.7,76.4,30.00,East,80,0.0,1.0,84,0.00,,FEW020,0.00,127.00,VWS V14.01,2013-08-18 06:51:00,
2013-08-18 02:56:00,81.7,76.4,30.00,East,81,3.0,3.0,84,0.00,,FEW020,0.00,127.00,VWS V14.01,2013-08-18 06:56:00,
2013-08-18 03:01:00,81.7,76.4,29.99,East,82,0.0,1.0,84,0.00,,FEW020,0.00,125.00,VWS V14.01,2013-08-18 07:01:00,
2013-08-18 03:06:00,81.6,76.3,29.99,East,82,1.0,1.0,84,0.00,,FEW020,0.00,125.00,VWS V14.01,2013-08-18 07:06:00,
2013-08-18 03:11:00,81.6,76.3,29.99,East,80,1.0,1.0,84,0.00,,FEW020,0.00,125.00,VWS V14.01,2013-08-18 07:11:00,
2013-08-18 03:16:00,81.6,76.3,29.99,East,82,1.0,3.0,84,0.00,,FEW020,0.00,125.00,VWS V14.01,2013-08-18 07:16:00,
2013-08-18 03:21:00,81.5,76.2,29.99,East,96,1.0,3.0,84,0.00,,FEW020,0.00,127.00,VWS V14.01,2013-08-18 07:21:00,
2013-08-18 03:26:00,81.5,76.2,29.99,East,96,3.0,3.0,84,0.00,,FEW020,0.00,125.00,VWS V14.01,2013-08-18 07:26:00,
2013-08-18 03:31:00,81.5,76.2,29.99,ESE,109,0.0,3.0,84,0.00,,FEW020,0.00,125.00,VWS V14.01,2013-08-18 07:31:00,
2013-08-18 03:36:00,81.5,75.8,29.99,ENE,75,1.0,3.0,83,0.00,,FEW020,0.00,125.00,VWS V14.01,2013-08-18 07:36:00,
2013-08-18 03:41:00,81.5,75.8,29.99,ENE,75,2.0,3.0,83,0.00,,FEW020,0.00,125.00,VWS V14.01,2013-08-18 07:41:00,
2013-08-18 03:46:00,81.5,75.8,29.99,ENE,70,1.0,2.0,83,0.00,,FEW020,0.00,127.00,VWS V14.01,2013-08-18 07:46:00,
2013-08-18 03:51:00,81.5,75.8,29.99,East,95,0.0,1.0,83,0.00,,FEW020,0.00,127.00,VWS V14.01,2013-08-18 07:51:00,
2013-08-18 03:56:00,81.5,75.8,29.99,East,94,1.0,2.0,83,0.00,,FEW020,0.00,127.00,VWS V14.01,2013-08-18 07:56:00,
2013-08-18 04:01:00,81.5,75.8,29.99,ESE,103,1.0,1.0,83,0.00,,FEW020,0.00,127.00,VWS V14.01,2013-08-18 08:01:00,
2013-08-18 04:06:00,81.5,75.8,29.98,East,94,0.0,0.0,83,0.00,,FEW020,0.00,125.00,VWS V14.01,2013-08-18 08:06:00,
2013-08-18 04:11:00,81.5,75.8,29.98,ENE,78,2.0,2.0,83,0.00,,FEW020,0.00,125.00,VWS V14.01,2013-08-18 08:11:00,
2013-08-18 04:16:00,81.4,75.7,29.98,ENE,77,3.0,3.0,83,0.00,,FEW020,0.00,127.00,VWS V14.01,2013-08-18 08:16:00,
2013-08-18 04:21:00,81.4,75.7,29.98,ENE,78,0.0,1.0,83,0.00,,FEW020,0.00,125.00,VWS V14.01,2013-08-18 08:21:00,
2013-08-18 04:26:00,81.5,75.8,29.98,ENE,77,0.0,1.0,83,0.00,,FEW020,0.00,127.00,VWS V14.01,2013-08-18 08:26:00,
2013-08-18 04:31:00,81.4,75.7,29.98,ENE,77,1.0,3.0,83,0.00,,FEW020,0.00,125.00,VWS V14.01,2013-08-18 08:31:00,
2013-08-18 04:36:00,81.4,75.7,29.98,ENE,77,1.0,2.0,83,0.00,,FEW020,0.00,125.00,VWS V14.01,2013-08-18 08:36:00,
2013-08-18 04:41:00,81.4,75.7,29.98,ENE,77,1.0,1.0,83,0.00,,FEW020,0.00,125.00,VWS V14.01,2013-08-18 08:41:00,
2013-08-18 04:46:00,81.3,76.0,29.98,ENE,77,1.0,1.0,84,0.00,,FEW020,0.00,125.00,VWS V14.01,2013-08-18 08:46:00,
2013-08-18 04:51:00,81.3,76.0,29.98,ENE,77,1.0,1.0,84,0.00,,FEW020,0.00,125.00,VWS V14.01,2013-08-18 08:51:00,
2013-08-18 04:56:00,81.2,75.9,29.98,ENE,78,0.0,0.0,84,0.00,,FEW020,0.00,125.00,VWS V14.01,2013-08-18 08:56:00,
2013-08-18 05:01:00,81.2,75.9,29.98,ENE,78,0.0,1.0,84,0.00,,FEW020,0.00,125.00,VWS V14.01,2013-08-18 09:01:00,
2013-08-18 05:06:00,81.2,75.9,29.98,ENE,77,0.0,0.0,84,0.00,,FEW020,0.00,125.00,VWS V14.01,2013-08-18 09:06:00,
2013-08-18 05:10:00,81.1,75.8,29.98,ENE,77,0.0,0.0,84,0.00,,FEW020,0.00,125.00,VWS V14.01,2013-08-18 09:10:00,
2013-08-18 05:15:00,81.0,75.7,29.98,ENE,77,0.0,0.0,84,0.00,,FEW020,0.00,127.00,VWS V14.01,2013-08-18 09:15:00,
2013-08-18 05:20:00,81.0,75.7,29.98,ENE,78,0.0,0.0,84,0.00,,FEW020,0.00,125.00,VWS V14.01,2013-08-18 09:20:00,
2013-08-18 05:25:00,81.0,75.7,29.98,ENE,77,0.0,0.0,84,0.00,,FEW020,0.00,127.00,VWS V14.01,2013-08-18 09:25:00,
2013-08-18 05:30:00,81.0,76.1,29.98,ENE,77,0.0,1.0,85,0.00,,FEW020,0.00,127.00,VWS V14.01,2013-08-18 09:30:00,
2013-08-18 05:35:00,80.9,76.0,29.98,ENE,77,0.0,0.0,85,0.00,,FEW020,0.00,125.00,VWS V14.01,2013-08-18 09:35:00,
2013-08-18 05:40:00,80.9,76.0,29.98,ENE,77,1.0,1.0,85,0.00,,FEW020,0.00,127.00,VWS V14.01,2013-08-18 09:40:00,
2013-08-18 05:45:00,80.9,76.0,29.98,East,80,1.0,2.0,85,0.00,,FEW020,0.00,127.00,VWS V14.01,2013-08-18 09:45:00,
2013-08-18 05:50:00,80.9,76.0,29.98,East,81,0.0,1.0,85,0.00,,FEW020,0.00,127.00,VWS V14.01,2013-08-18 09:50:00,
2013-08-18 05:55:00,80.8,75.9,29.98,East,80,0.0,0.0,85,0.00,,FEW020,0.00,127.00,VWS V14.01,2013-08-18 09:55:00,
2013-08-18 06:00:00,80.8,75.9,29.99,East,80,1.0,1.0,85,0.00,,FEW020,0.00,125.00,VWS V14.01,2013-08-18 10:00:00,
2013-08-18 06:05:00,80.7,75.8,29.98,East,81,0.0,1.0,85,0.00,,FEW020,0.00,127.00,VWS V14.01,2013-08-18 10:05:00,
2013-08-18 06:10:00,80.8,75.9,29.98,East,83,1.0,1.0,85,0.00,,FEW020,0.00,127.00,VWS V14.01,2013-08-18 10:10:00,
2013-08-18 06:15:00,80.7,75.8,29.99,East,84,0.0,1.0,85,0.00,,FEW020,0.00,127.00,VWS V14.01,2013-08-18 10:15:00,
2013-08-18 06:20:00,80.7,75.8,29.99,East,84,3.0,3.0,85,0.00,,FEW020,0.00,125.00,VWS V14.01,2013-08-18 10:20:00,
2013-08-18 06:25:00,80.7,75.8,29.98,East,86,0.0,0.0,85,0.00,,FEW020,0.00,127.00,VWS V14.01,2013-08-18 10:25:00,
2013-08-18 06:30:00,80.8,75.9,29.99,East,86,0.0,0.0,85,0.00,,FEW020,0.00,125.00,VWS V14.01,2013-08-18 10:30:00,
2013-08-18 06:35:00,80.8,75.5,29.99,East,85,0.0,0.0,84,0.00,,FEW020,0.00,125.00,VWS V14.01,2013-08-18 10:35:00,
2013-08-18 06:40:00,80.8,75.5,29.99,East,84,0.0,1.0,84,0.00,,FEW020,0.00,127.00,VWS V14.01,2013-08-18 10:40:00,
2013-08-18 06:45:00,80.8,75.5,29.99,East,85,0.0,0.0,84,0.00,,FEW020,0.00,127.00,VWS V14.01,2013-08-18 10:45:00,
2013-08-18 06:50:00,80.9,75.3,29.99,East,86,0.0,1.0,83,0.00,,FEW020,0.00,128.00,VWS V14.01,2013-08-18 10:50:00,
2013-08-18 06:55:00,80.9,75.3,29.99,East,88,0.0,0.0,83,0.00,,FEW020,0.00,128.00,VWS V14.01,2013-08-18 10:55:00,
2013-08-18 07:00:00,80.9,75.3,29.99,East,90,3.0,3.0,83,0.00,,FEW029,0.00,130.00,VWS V14.01,2013-08-18 11:00:00,
2013-08-18 07:05:00,81.0,75.3,30.00,East,90,1.0,1.0,83,0.00,,FEW029,0.00,134.00,VWS V14.01,2013-08-18 11:05:00,
2013-08-18 07:10:00,81.1,75.1,29.99,East,88,2.0,4.0,82,0.00,,FEW029,0.00,135.00,VWS V14.01,2013-08-18 11:10:00,
2013-08-18 07:15:00,81.1,75.1,30.00,East,88,1.0,1.0,82,0.00,,FEW029,0.00,135.00,VWS V14.01,2013-08-18 11:15:00,
2013-08-18 07:20:00,81.1,75.1,30.00,East,89,3.0,3.0,82,0.00,,FEW029,0.00,137.00,VWS V14.01,2013-08-18 11:20:00,
2013-08-18 07:25:00,81.1,75.1,30.00,ENE,74,0.0,4.0,82,0.00,,FEW029,0.00,144.00,VWS V14.01,2013-08-18 11:25:00,
2013-08-18 07:30:00,81.2,75.2,30.00,ENE,74,0.0,2.0,82,0.00,,FEW029,0.00,141.00,VWS V14.01,2013-08-18 11:30:00,
2013-08-18 07:35:00,81.3,75.3,30.00,ESE,103,1.0,4.0,82,0.00,,FEW029,0.00,148.00,VWS V14.01,2013-08-18 11:35:00,
2013-08-18 07:40:00,81.4,75.4,30.00,South,183,4.0,5.0,82,0.00,,FEW029,0.00,165.00,VWS V14.01,2013-08-18 11:40:00,
2013-08-18 07:45:00,81.6,76.3,30.01,ESE,110,2.0,6.0,84,0.00,,FEW029,0.00,269.00,VWS V14.01,2013-08-18 11:45:00,
2013-08-18 07:50:00,81.5,76.6,30.01,ESE,111,1.0,4.0,85,0.00,,FEW029,0.00,260.00,VWS V14.01,2013-08-18 11:50:00,
2013-08-18 07:55:00,81.7,76.8,30.01,ESE,111,1.0,3.0,85,0.00,,FEW029,0.00,250.00,VWS V14.01,2013-08-18 11:55:00,
2013-08-18 08:00:00,81.8,76.8,30.01,ENE,61,2.0,4.0,85,0.00,,FEW029,0.00,255.00,VWS V14.01,2013-08-18 12:00:00,
2013-08-18 08:05:00,82.2,76.9,30.01,ENE,66,0.0,4.0,84,0.00,,BKN034,0.00,267.00,VWS V14.01,2013-08-18 12:05:00,
2013-08-18 08:10:00,82.7,77.0,30.01,ENE,71,1.0,4.0,83,0.00,,BKN034,0.00,276.00,VWS V14.01,2013-08-18 12:10:00,
2013-08-18 08:15:00,83.2,77.1,30.01,SSE,147,1.0,4.0,82,0.00,,BKN034,0.00,302.00,VWS V14.01,2013-08-18 12:15:00,
2013-08-18 08:20:00,83.4,76.6,30.01,ESE,107,3.0,7.0,80,0.00,,BKN034,0.00,325.00,VWS V14.01,2013-08-18 12:20:00,
2013-08-18 08:25:00,83.9,76.3,30.01,ENE,76,1.0,5.0,78,0.00,,BKN034,0.00,341.00,VWS V14.01,2013-08-18 12:25:00,
2013-08-18 08:30:00,84.3,76.3,30.02,East,90,2.0,5.0,77,0.00,,BKN034,0.00,383.00,VWS V14.01,2013-08-18 12:30:00,
2013-08-18 08:35:00,84.8,76.8,30.01,ESE,105,3.0,3.0,77,0.00,,BKN034,0.00,432.00,VWS V14.01,2013-08-18 12:35:00,
2013-08-18 08:40:00,85.2,76.4,30.02,ESE,112,6.0,10.0,75,0.00,,BKN034,0.00,443.00,VWS V14.01,2013-08-18 12:40:00,
2013-08-18 08:45:00,85.6,76.4,30.02,ESE,103,11.0,11.0,74,0.00,,BKN034,0.00,457.00,VWS V14.01,2013-08-18 12:45:00,
2013-08-18 08:50:00,85.6,76.0,30.02,East,91,5.0,13.0,73,0.01,,BKN034,0.01,503.00,VWS V14.01,2013-08-18 12:50:00,
2013-08-18 08:55:00,85.7,76.5,30.02,ESE,105,2.0,13.0,74,0.01,,BKN034,0.01,519.00,VWS V14.01,2013-08-18 12:55:00,
2013-08-18 09:00:00,85.6,76.4,30.02,ESE,116,3.0,12.0,74,0.01,,BKN034,0.01,237.00,VWS V14.01,2013-08-18 13:00:00,
2013-08-18 09:05:00,85.1,75.9,30.03,ESE,116,6.0,11.0,74,0.01,,BKN024,0.01,278.00,VWS V14.01,2013-08-18 13:05:00,
2013-08-18 09:10:00,84.7,76.3,30.03,SE,128,2.0,8.0,76,0.01,,BKN024,0.01,320.00,VWS V14.01,2013-08-18 13:10:00,
2013-08-18 09:15:00,84.7,76.3,30.03,ESE,118,5.0,9.0,76,0.01,,BKN024,0.01,244.00,VWS V14.01,2013-08-18 13:15:00,
2013-08-18 09:20:00,84.7,76.7,30.03,SE,128,11.0,11.0,77,0.01,,BKN024,0.01,287.00,VWS V14.01,2013-08-18 13:20:00,
2013-08-18 09:25:00,84.6,76.6,30.03,ESE,111,3.0,12.0,77,0.01,,BKN024,0.01,264.00,VWS V14.01,2013-08-18 13:25:00,
2013-08-18 09:30:00,84.9,76.9,30.03,SE,126,7.0,10.0,77,0.01,,BKN024,0.01,635.00,VWS V14.01,2013-08-18 13:30:00,
2013-08-18 09:35:00,85.7,76.5,30.03,East,94,7.0,12.0,74,0.01,,BKN024,0.01,638.00,VWS V14.01,2013-08-18 13:35:00,
2013-08-18 09:40:00,85.7,76.1,30.03,ESE,113,3.0,11.0,73,0.01,,BKN024,0.01,246.00,VWS V14.01,2013-08-18 13:40:00,
2013-08-18 09:45:00,85.6,76.4,30.03,East,95,5.0,10.0,74,0.01,,BKN024,0.01,290.00,VWS V14.01,2013-08-18 13:45:00,
2013-08-18 09:50:00,85.9,76.7,30.03,SE,128,9.0,11.0,74,0.01,,BKN024,0.01,679.00,VWS V14.01,2013-08-18 13:50:00,
2013-08-18 09:55:00,86.4,76.7,30.03,ENE,73,6.0,11.0,73,0.00,,BKN044,0.01,735.00,VWS V14.01,2013-08-18 13:55:00,
2013-08-18 10:00:00,86.7,76.6,30.03,NNE,32,6.0,14.0,72,0.00,,BKN044,0.01,722.00,VWS V14.01,2013-08-18 14:00:00,
2013-08-18 10:05:00,87.0,76.5,30.03,East,82,7.0,17.0,71,0.00,,BKN044,0.01,721.00,VWS V14.01,2013-08-18 14:05:00,
2013-08-18 10:10:00,87.2,77.1,30.03,ESE,112,4.0,14.0,72,0.00,,BKN044,0.01,726.00,VWS V14.01,2013-08-18 14:10:00,
2013-08-18 10:15:00,86.7,76.6,30.04,ESE,107,10.0,14.0,72,0.00,,BKN044,0.01,271.00,VWS V14.01,2013-08-18 14:15:00,
2013-08-18 10:20:00,86.2,76.5,30.03,East,89,2.0,12.0,73,0.00,,BKN044,0.01,814.00,VWS V14.01,2013-08-18 14:20:00,
2013-08-18 10:25:00,86.5,77.2,30.04,East,96,6.0,7.0,74,0.00,,BKN044,0.01,408.00,VWS V14.01,2013-08-18 14:25:00,
2013-08-18 10:30:00,86.7,77.8,30.04,SSE,153,0.0,11.0,75,0.00,,BKN044,0.01,833.00,VWS V14.01,2013-08-18 14:30:00,
2013-08-18 10:35:00,87.2,77.9,30.04,ENE,75,7.0,12.0,74,0.00,,BKN044,0.01,819.00,VWS V14.01,2013-08-18 14:35:00,
2013-08-18 10:40:00,87.3,77.2,30.04,East,92,10.0,13.0,72,0.00,,BKN044,0.01,299.00,VWS V14.01,2013-08-18 14:40:00,
2013-08-18 10:45:00,87.3,77.6,30.04,ENE,78,5.0,10.0,73,0.00,,BKN044,0.01,345.00,VWS V14.01,2013-08-18 14:45:00,
2013-08-18 10:50:00,87.5,77.8,30.04,East,98,4.0,11.0,73,0.00,,BKN044,0.01,882.00,VWS V14.01,2013-08-18 14:50:00,
2013-08-18 10:55:00,87.9,76.9,30.04,ESE,116,7.0,11.0,70,0.00,,BKN044,0.01,851.00,VWS V14.01,2013-08-18 14:55:00,
2013-08-18 11:00:00,88.4,77.8,30.04,ENE,64,5.0,12.0,71,0.00,,BKN044,0.01,865.00,VWS V14.01,2013-08-18 15:00:00,
2013-08-18 11:05:00,88.7,77.7,30.04,East,100,6.0,11.0,70,0.00,,BKN044,0.01,868.00,VWS V14.01,2013-08-18 15:05:00,
2013-08-18 11:10:00,88.7,77.7,30.04,ENE,66,4.0,10.0,70,0.00,,BKN044,0.01,898.00,VWS V14.01,2013-08-18 15:10:00,
2013-08-18 11:15:00,88.4,77.4,30.04,ESE,109,6.0,11.0,70,0.00,,BKN044,0.01,418.00,VWS V14.01,2013-08-18 15:15:00,
2013-08-18 11:20:00,88.6,78.0,30.04,East,80,4.0,9.0,71,0.00,,BKN044,0.01,861.00,VWS V14.01,2013-08-18 15:20:00,
2013-08-18 11:25:00,88.4,77.4,30.04,SE,141,5.0,12.0,70,0.00,,BKN044,0.01,313.00,VWS V14.01,2013-08-18 15:25:00,
2013-08-18 11:30:00,88.4,77.8,30.04,East,86,4.0,8.0,71,0.00,,BKN044,0.01,1018.00,VWS V14.01,2013-08-18 15:30:00,
2013-08-18 11:35:00,88.5,77.9,30.04,ENE,57,4.0,15.0,71,0.00,,BKN044,0.01,1018.00,VWS V14.01,2013-08-18 15:35:00,
2013-08-18 11:40:00,88.2,77.6,30.04,East,84,6.0,11.0,71,0.00,,BKN044,0.01,404.00,VWS V14.01,2013-08-18 15:40:00,
2013-08-18 11:45:00,87.9,76.9,30.04,East,99,12.0,14.0,70,0.00,,BKN044,0.01,622.00,VWS V14.01,2013-08-18 15:45:00,
2013-08-18 11:50:00,88.1,76.7,30.04,East,83,6.0,12.0,69,0.00,,BKN044,0.01,977.00,VWS V14.01,2013-08-18 15:50:00,
2013-08-18 11:55:00,88.4,76.5,30.04,East,95,2.0,12.0,68,0.00,,BKN044,0.01,990.00,VWS V14.01,2013-08-18 15:55:00,
2013-08-18 12:00:00,88.8,76.9,30.04,ENE,67,4.0,12.0,68,0.00,,BKN044,0.01,963.00,VWS V14.01,2013-08-18 16:00:00,
2013-08-18 12:05:00,88.9,77.0,30.03,East,99,10.0,16.0,68,0.00,,FEW029,0.01,737.00,VWS V14.01,2013-08-18 16:05:00,
2013-08-18 12:10:00,89.1,77.2,30.04,NE,48,6.0,11.0,68,0.00,,FEW029,0.01,960.00,VWS V14.01,2013-08-18 16:10:00,
2013-08-18 12:15:00,89.1,77.2,30.03,ESE,115,5.0,13.0,68,0.00,,FEW029,0.01,1079.00,VWS V14.01,2013-08-18 16:15:00,
2013-08-18 12:20:00,89.3,77.4,30.03,SE,133,13.0,17.0,68,0.00,,FEW029,0.01,1167.00,VWS V14.01,2013-08-18 16:20:00,
2013-08-18 12:25:00,89.7,77.3,30.03,East,85,6.0,12.0,67,0.00,,FEW029,0.01,1139.00,VWS V14.01,2013-08-18 16:25:00,
2013-08-18 12:30:00,89.6,77.6,30.03,ESE,103,9.0,11.0,68,0.00,,FEW029,0.01,1167.00,VWS V14.01,2013-08-18 16:30:00,
2013-08-18 12:35:00,89.4,77.9,30.04,ENE,65,5.0,12.0,69,0.00,,FEW029,0.01,1172.00,VWS V14.01,2013-08-18 16:35:00,
2013-08-18 12:40:00,89.2,77.3,30.04,East,86,4.0,13.0,68,0.00,,FEW029,0.01,464.00,VWS V14.01,2013-08-18 16:40:00,
2013-08-18 12:45:00,89.2,77.7,30.03,NE,49,2.0,12.0,69,0.00,,FEW029,0.01,466.00,VWS V14.01,2013-08-18 16:45:00,
2013-08-18 12:50:00,89.5,78.4,30.03,East,93,4.0,9.0,70,0.00,,FEW029,0.01,1097.00,VWS V14.01,2013-08-18 16:50:00,
2013-08-18 12:55:00,90.1,78.1,30.03,ESE,111,7.0,15.0,68,0.00,,SCT030CU,0.01,1153.00,VWS V14.01,2013-08-18 16:55:00,
2013-08-18 13:00:00,90.2,78.2,30.03,ESE,117,5.0,16.0,68,0.00,,SCT030CU,0.01,1223.00,VWS V14.01,2013-08-18 17:00:00,
2013-08-18 13:05:00,90.2,78.2,30.02,ESE,106,5.0,15.0,68,0.00,,SCT030CU,0.01,485.00,VWS V14.01,2013-08-18 17:05:00,
2013-08-18 13:10:00,89.7,77.7,30.02,ENE,63,3.0,13.0,68,0.00,,SCT030CU,0.01,413.00,VWS V14.01,2013-08-18 17:10:00,
2013-08-18 13:15:00,89.4,77.4,30.02,NE,53,5.0,13.0,68,0.00,,SCT030CU,0.01,394.00,VWS V14.01,2013-08-18 17:15:00,
2013-08-18 13:20:00,89.4,77.9,30.02,NE,44,6.0,11.0,69,0.00,,SCT030CU,0.01,1063.00,VWS V14.01,2013-08-18 17:20:00,
2013-08-18 13:25:00,89.4,78.3,30.02,ESE,107,5.0,13.0,70,0.00,,SCT030CU,0.01,483.00,VWS V14.01,2013-08-18 17:25:00,
2013-08-18 13:30:00,89.4,77.9,30.02,East,80,13.0,13.0,69,0.00,,SCT030CU,0.01,406.00,VWS V14.01,2013-08-18 17:30:00,
2013-08-18 13:35:00,89.5,77.6,30.02,NE,52,9.0,12.0,68,0.00,,SCT030CU,0.01,1164.00,VWS V14.01,2013-08-18 17:35:00,
2013-08-18 13:40:00,89.5,77.6,30.02,ENE,78,9.0,18.0,68,0.00,,SCT030CU,0.01,1183.00,VWS V14.01,2013-08-18 17:40:00,
2013-08-18 13:45:00,89.5,77.1,30.02,ENE,69,4.0,14.0,67,0.00,,SCT030CU,0.01,350.00,VWS V14.01,2013-08-18 17:45:00,
2013-08-18 13:50:00,89.0,77.1,30.02,East,86,4.0,14.0,68,0.00,,SCT030CU,0.01,438.00,VWS V14.01,2013-08-18 17:50:00,
2013-08-18 13:55:00,89.2,78.1,30.02,ESE,107,2.0,14.0,70,0.00,,SCT030CU,0.01,1232.00,VWS V14.01,2013-08-18 17:55:00,
2013-08-18 14:00:00,89.1,77.6,30.01,NNE,30,3.0,14.0,69,0.00,,SCT030CU,0.01,487.00,VWS V14.01,2013-08-18 18:00:00,
2013-08-18 14:05:00,88.6,77.1,30.01,ESE,123,4.0,13.0,69,0.00,,SCT030CU,0.01,385.00,VWS V14.01,2013-08-18 18:05:00,
2013-08-18 14:10:00,88.6,77.6,30.01,SE,126,15.0,15.0,70,0.00,,SCT030CU,0.01,411.00,VWS V14.01,2013-08-18 18:10:00,
2013-08-18 14:15:00,88.6,78.0,30.01,NE,49,7.0,16.0,71,0.00,,SCT030CU,0.01,316.00,VWS V14.01,2013-08-18 18:15:00,
2013-08-18 14:20:00,87.9,77.3,30.01,SE,142,3.0,14.0,71,0.00,,SCT030CU,0.01,323.00,VWS V14.01,2013-08-18 18:20:00,
2013-08-18 14:25:00,87.6,78.3,30.01,ESE,102,2.0,12.0,74,0.00,,SCT030CU,0.01,547.00,VWS V14.01,2013-08-18 18:25:00,
2013-08-18 14:30:00,87.9,77.8,30.00,NE,47,3.0,11.0,72,0.00,,SCT030CU,0.01,1028.00,VWS V14.01,2013-08-18 18:30:00,
2013-08-18 14:35:00,88.7,78.1,30.00,ESE,105,0.0,13.0,71,0.00,,SCT030CU,0.01,1056.00,VWS V14.01,2013-08-18 18:35:00,
2013-08-18 14:40:00,88.8,77.3,30.00,ESE,104,11.0,19.0,69,0.00,,SCT030CU,0.01,1056.00,VWS V14.01,2013-08-18 18:40:00,
2013-08-18 14:45:00,89.2,78.1,30.00,East,81,5.0,12.0,70,0.00,,SCT030CU,0.01,1150.00,VWS V14.01,2013-08-18 18:45:00,
2013-08-18 14:50:00,88.8,77.3,30.00,NE,36,5.0,14.0,69,0.00,,SCT030CU,0.01,429.00,VWS V14.01,2013-08-18 18:50:00,
2013-08-18 14:55:00,88.8,78.2,30.00,NE,35,4.0,11.0,71,0.00,,SCT030CU,0.01,475.00,VWS V14.01,2013-08-18 18:55:00,
2013-08-18 15:00:00,88.6,78.0,30.00,NNE,30,9.0,13.0,71,0.00,,SCT030CU,0.01,508.00,VWS V14.01,2013-08-18 19:00:00,
2013-08-18 15:05:00,89.2,78.6,30.00,SSE,151,13.0,15.0,71,0.00,,BKN035,0.01,1165.00,VWS V14.01,2013-08-18 19:05:00,
2013-08-18 15:10:00,88.2,77.6,30.00,ESE,118,12.0,17.0,71,0.00,,BKN035,0.01,448.00,VWS V14.01,2013-08-18 19:10:00,
2013-08-18 15:14:00,87.1,77.4,30.00,ESE,118,5.0,16.0,73,0.00,,BKN035,0.01,594.00,VWS V14.01,2013-08-18 19:14:00,
2013-08-18 15:19:00,86.1,75.6,30.00,ESE,120,10.0,14.0,71,0.00,,BKN035,0.01,343.00,VWS V14.01,2013-08-18 19:19:00,
2013-08-18 15:24:00,85.4,75.3,30.00,ENE,75,3.0,16.0,72,0.00,,BKN035,0.01,411.00,VWS V14.01,2013-08-18 19:24:00,
2013-08-18 15:29:00,85.2,75.6,30.00,ESE,105,2.0,13.0,73,0.00,,BKN035,0.01,534.00,VWS V14.01,2013-08-18 19:29:00,
2013-08-18 15:34:00,85.4,75.8,29.99,SE,141,11.0,13.0,73,0.00,,BKN035,0.01,325.00,VWS V14.01,2013-08-18 19:34:00,
2013-08-18 15:39:00,85.1,75.1,29.99,SSE,153,6.0,11.0,72,0.00,,BKN035,0.01,366.00,VWS V14.01,2013-08-18 19:39:00,
2013-08-18 15:44:00,85.8,75.7,30.00,East,92,7.0,10.0,72,0.00,,BKN035,0.01,744.00,VWS V14.01,2013-08-18 19:44:00,
2013-08-18 15:49:00,85.9,75.8,29.99,East,97,3.0,10.0,72,0.00,,BKN035,0.01,786.00,VWS V14.01,2013-08-18 19:49:00,
2013-08-18 15:54:00,86.5,76.4,29.99,East,100,7.0,10.0,72,0.00,,BKN035,0.01,809.00,VWS V14.01,2013-08-18 19:54:00,
2013-08-18 15:59:00,86.9,75.9,29.99,SSE,147,10.0,12.0,70,0.00,,BKN035,0.01,788.00,VWS V14.01,2013-08-18 19:59:00,
2013-08-18 16:04:00,87.5,75.6,29.99,East,98,3.0,13.0,68,0.00,,SCT080,0.01,738.00,VWS V14.01,2013-08-18 20:04:00,
2013-08-18 16:09:00,87.8,75.9,29.99,ESE,105,9.0,11.0,68,0.00,,SCT080,0.01,744.00,VWS V14.01,2013-08-18 20:09:00,
2013-08-18 16:14:00,88.1,76.2,29.99,East,82,4.0,13.0,68,0.00,,SCT080,0.01,759.00,VWS V14.01,2013-08-18 20:14:00,
2013-08-18 16:19:00,88.5,77.0,29.98,SE,140,5.0,10.0,69,0.00,,SCT080,0.01,735.00,VWS V14.01,2013-08-18 20:19:00,
2013-08-18 16:24:00,88.9,77.0,29.98,SE,130,12.0,18.0,68,0.00,,SCT080,0.01,740.00,VWS V14.01,2013-08-18 20:24:00,
2013-08-18 16:29:00,88.8,76.4,29.98,ENE,64,8.0,17.0,67,0.00,,SCT080,0.01,810.00,VWS V14.01,2013-08-18 20:29:00,
2013-08-18 16:34:00,88.4,76.5,29.98,ESE,117,4.0,18.0,68,0.00,,SCT080,0.01,773.00,VWS V14.01,2013-08-18 20:34:00,
2013-08-18 16:39:00,88.3,77.3,29.97,ESE,112,9.0,12.0,70,0.00,,SCT080,0.01,777.00,VWS V14.01,2013-08-18 20:39:00,
2013-08-18 16:44:00,88.2,77.2,29.97,East,94,6.0,16.0,70,0.00,,SCT080,0.01,708.00,VWS V14.01,2013-08-18 20:44:00,
2013-08-18 16:49:00,87.9,77.3,29.98,ENE,59,9.0,14.0,71,0.00,,SCT080,0.01,693.00,VWS V14.01,2013-08-18 20:49:00,
2013-08-18 16:54:00,87.8,77.2,29.97,SE,132,4.0,15.0,71,0.00,,SCT080,0.01,717.00,VWS V14.01,2013-08-18 20:54:00,
2013-08-18 16:59:00,88.0,77.4,29.97,SE,142,6.0,18.0,71,0.00,,SCT080,0.01,724.00,VWS V14.01,2013-08-18 20:59:00,
2013-08-18 17:04:00,88.4,77.8,29.97,ENE,64,1.0,14.0,71,0.00,,SCT080,0.01,687.00,VWS V14.01,2013-08-18 21:04:00,
2013-08-18 17:09:00,88.3,77.7,29.97,East,91,2.0,12.0,71,0.00,,SCT080,0.01,722.00,VWS V14.01,2013-08-18 21:09:00,
2013-08-18 17:14:00,88.1,77.9,29.97,SSE,158,5.0,12.0,72,0.00,,SCT080,0.01,272.00,VWS V14.01,2013-08-18 21:14:00,
2013-08-18 17:19:00,88.1,77.9,29.96,ESE,107,6.0,15.0,72,0.00,,SCT080,0.01,729.00,VWS V14.01,2013-08-18 21:19:00,
2013-08-18 17:24:00,88.0,77.4,29.97,East,98,9.0,18.0,71,0.00,,SCT080,0.01,693.00,VWS V14.01,2013-08-18 21:24:00,
2013-08-18 17:29:00,87.8,77.2,29.97,ESE,103,5.0,14.0,71,0.00,,SCT080,0.01,633.00,VWS V14.01,2013-08-18 21:29:00,
2013-08-18 17:34:00,87.8,77.7,29.96,ENE,70,10.0,12.0,72,0.00,,SCT080,0.01,578.00,VWS V14.01,2013-08-18 21:34:00,
2013-08-18 17:39:00,87.7,78.0,29.96,East,84,5.0,18.0,73,0.00,,SCT080,0.01,257.00,VWS V14.01,2013-08-18 21:39:00,
2013-08-18 17:44:00,87.3,77.2,29.96,ESE,123,2.0,14.0,72,0.00,,SCT080,0.01,229.00,VWS V14.01,2013-08-18 21:44:00,
2013-08-18 17:49:00,87.2,77.5,29.96,ENE,71,4.0,15.0,73,0.00,,SCT080,0.01,534.00,VWS V14.01,2013-08-18 21:49:00,
2013-08-18 17:54:00,87.4,77.7,29.96,ESE,108,6.0,10.0,73,0.00,,SCT080,0.01,543.00,VWS V14.01,2013-08-18 21:54:00,
2013-08-18 17:59:00,87.5,76.9,29.96,ENE,63,6.0,17.0,71,0.00,,-RA,0.01,512.00,VWS V14.01,2013-08-18 21:59:00,
2013-08-18 18:04:00,87.5,76.9,29.96,NE,53,4.0,11.0,71,0.00,,-RA,0.01,487.00,VWS V14.01,2013-08-18 22:04:00,
2013-08-18 18:09:00,87.4,77.3,29.97,SSE,151,7.0,13.0,72,0.00,,-RA,0.01,487.00,VWS V14.01,2013-08-18 22:09:00,
2013-08-18 18:14:00,87.1,77.4,29.97,East,96,5.0,12.0,73,0.00,,-RA,0.01,278.00,VWS V14.01,2013-08-18 22:14:00,
2013-08-18 18:19:00,87.0,76.9,29.97,ESE,112,6.0,14.0,72,0.00,,-RA,0.01,448.00,VWS V14.01,2013-08-18 22:19:00,
2013-08-18 18:24:00,87.1,76.6,29.97,SE,130,16.0,16.0,71,0.00,,-RA,0.01,415.00,VWS V14.01,2013-08-18 22:24:00,
2013-08-18 18:29:00,87.3,77.6,29.97,East,82,1.0,10.0,73,0.00,,-RA,0.01,332.00,VWS V14.01,2013-08-18 22:29:00,
2013-08-18 18:34:00,87.2,77.5,29.97,SE,127,9.0,15.0,73,0.00,,-RA,0.01,297.00,VWS V14.01,2013-08-18 22:34:00,
2013-08-18 18:39:00,86.8,77.1,29.97,East,100,3.0,16.0,73,0.00,,-RA,0.01,179.00,VWS V14.01,2013-08-18 22:39:00,
2013-08-18 18:44:00,86.5,77.2,29.97,SSE,151,6.0,12.0,74,0.00,,-RA,0.01,181.00,VWS V14.01,2013-08-18 22:44:00,
2013-08-18 18:49:00,86.5,77.6,29.97,ESE,108,12.0,12.0,75,0.00,,-RA,0.01,200.00,VWS V14.01,2013-08-18 22:49:00,
2013-08-18 18:54:00,86.3,77.0,29.97,ESE,111,11.0,14.0,74,0.00,,-RA,0.01,221.00,VWS V14.01,2013-08-18 22:54:00,
2013-08-18 18:59:00,86.2,76.9,29.97,ESE,123,5.0,11.0,74,0.00,,-RA,0.01,213.00,VWS V14.01,2013-08-18 22:59:00,
2013-08-18 19:04:00,86.2,76.1,29.97,ESE,107,5.0,13.0,72,0.00,,-RA,0.01,192.00,VWS V14.01,2013-08-18 23:04:00,
2013-08-18 19:09:00,86.2,76.5,29.97,ESE,122,1.0,9.0,73,0.00,,-RA,0.01,206.00,VWS V14.01,2013-08-18 23:09:00,
2013-08-18 19:14:00,86.3,77.4,29.98,ESE,122,6.0,11.0,75,0.00,,SCT022TCU,0.01,230.00,VWS V14.01,2013-08-18 23:14:00,
2013-08-18 19:19:00,86.2,77.3,29.98,ENE,62,1.0,10.0,75,0.00,,SCT022TCU,0.01,185.00,VWS V14.01,2013-08-18 23:19:00,
2013-08-18 19:24:00,86.1,77.2,29.98,East,90,2.0,9.0,75,0.00,,SCT022TCU,0.01,141.00,VWS V14.01,2013-08-18 23:24:00,
2013-08-18 19:29:00,85.8,77.4,29.97,ESE,120,7.0,9.0,76,0.00,,SCT022TCU,0.01,135.00,VWS V14.01,2013-08-18 23:29:00,
2013-08-18 19:34:00,85.6,77.2,29.98,ESE,119,6.0,7.0,76,0.00,,SCT022TCU,0.01,134.00,VWS V14.01,2013-08-18 23:34:00,
2013-08-18 19:39:00,85.4,77.4,29.98,East,99,4.0,7.0,77,0.00,,SCT022TCU,0.01,132.00,VWS V14.01,2013-08-18 23:39:00,
2013-08-18 19:44:00,85.2,77.2,29.98,ESE,109,2.0,11.0,77,0.00,,SCT022TCU,0.01,130.00,VWS V14.01,2013-08-18 23:44:00,
2013-08-18 19:49:00,85.0,77.4,29.99,ESE,111,2.0,7.0,78,0.00,,SCT022TCU,0.01,128.00,VWS V14.01,2013-08-18 23:49:00,
2013-08-18 19:54:00,84.8,77.2,29.99,East,90,0.0,7.0,78,0.00,,SCT022TCU,0.01,127.00,VWS V14.01,2013-08-18 23:54:00,
2013-08-18 19:59:00,84.7,77.1,29.99,East,95,4.0,10.0,78,0.00,,SCT022TCU,0.01,127.00,VWS V14.01,2013-08-18 23:59:00,
2013-08-18 20:04:00,84.6,77.4,29.99,ESE,105,4.0,6.0,79,0.00,,SCT022TCU,0.01,127.00,VWS V14.01,2013-08-19 00:04:00,
2013-08-18 20:09:00,84.5,77.3,29.99,East,82,4.0,5.0,79,0.00,,SCT022TCU,0.01,125.00,VWS V14.01,2013-08-19 00:09:00,
2013-08-18 20:14:00,84.4,77.2,29.99,ESE,104,0.0,7.0,79,0.00,,SCT022TCU,0.01,125.00,VWS V14.01,2013-08-19 00:14:00,
2013-08-18 20:19:00,84.3,77.1,29.99,East,80,3.0,10.0,79,0.00,,SCT022TCU,0.01,125.00,VWS V14.01,2013-08-19 00:19:00,
2013-08-18 20:24:00,84.2,77.0,29.99,East,96,5.0,9.0,79,0.00,,SCT022TCU,0.01,125.00,VWS V14.01,2013-08-19 00:24:00,
2013-08-18 20:29:00,84.2,77.0,30.00,ESE,109,0.0,7.0,79,0.00,,SCT022TCU,0.01,127.00,VWS V14.01,2013-08-19 00:29:00,
2013-08-18 20:34:00,84.2,77.0,30.00,ENE,78,0.0,4.0,79,0.00,,SCT022TCU,0.01,125.00,VWS V14.01,2013-08-19 00:34:00,
2013-08-18 20:39:00,84.1,77.3,30.00,East,100,1.0,9.0,80,0.00,,SCT022TCU,0.01,127.00,VWS V14.01,2013-08-19 00:39:00,
2013-08-18 20:44:00,84.1,77.3,30.00,East,84,2.0,6.0,80,0.00,,SCT022TCU,0.01,125.00,VWS V14.01,2013-08-19 00:44:00,
2013-08-18 20:49:00,84.1,77.3,30.00,East,98,3.0,7.0,80,0.00,,SCT022TCU,0.01,125.00,VWS V14.01,2013-08-19 00:49:00,
2013-08-18 20:54:00,84.0,77.2,30.00,ENE,61,3.0,7.0,80,0.00,,SCT022TCU,0.01,125.00,VWS V14.01,2013-08-19 00:54:00,
2013-08-18 20:59:00,83.9,77.1,30.01,ENE,78,2.0,4.0,80,0.00,,BKN021,0.01,125.00,VWS V14.01,2013-08-19 00:59:00,
2013-08-18 21:04:00,83.9,77.1,30.01,East,84,6.0,7.0,80,0.00,,BKN021,0.01,125.00,VWS V14.01,2013-08-19 01:04:00,
2013-08-18 21:09:00,83.8,77.0,30.01,East,94,3.0,6.0,80,0.00,,BKN021,0.01,127.00,VWS V14.01,2013-08-19 01:09:00,
2013-08-18 21:14:00,83.8,77.3,30.01,East,98,2.0,3.0,81,0.00,,BKN021,0.01,127.00,VWS V14.01,2013-08-19 01:14:00,
2013-08-18 21:19:00,83.8,77.3,30.01,East,82,1.0,5.0,81,0.00,,BKN021,0.01,125.00,VWS V14.01,2013-08-19 01:19:00,
2013-08-18 21:24:00,83.7,77.2,30.02,ENE,76,1.0,6.0,81,0.00,,BKN021,0.01,125.00,VWS V14.01,2013-08-19 01:24:00,
2013-08-18 21:29:00,83.6,77.2,30.02,East,86,3.0,12.0,81,0.00,,BKN021,0.01,125.00,VWS V14.01,2013-08-19 01:29:00,
2013-08-18 21:34:00,83.6,77.2,30.02,East,96,2.0,6.0,81,0.00,,BKN021,0.01,125.00,VWS V14.01,2013-08-19 01:34:00,
2013-08-18 21:39:00,83.6,77.2,30.02,East,94,5.0,6.0,81,0.00,,BKN021,0.01,125.00,VWS V14.01,2013-08-19 01:39:00,
2013-08-18 21:44:00,83.6,77.2,30.02,ESE,105,2.0,7.0,81,0.00,,BKN021,0.01,127.00,VWS V14.01,2013-08-19 01:44:00,
2013-08-18 21:49:00,83.5,77.1,30.02,ESE,109,3.0,6.0,81,0.00,,BKN021,0.01,125.00,VWS V14.01,2013-08-19 01:49:00,
2013-08-18 21:54:00,83.5,77.1,30.02,East,98,4.0,5.0,81,0.00,,BKN021,0.01,125.00,VWS V14.01,2013-08-19 01:54:00,
2013-08-18 21:59:00,83.5,77.1,30.03,ENE,72,1.0,6.0,81,0.00,,BKN021,0.01,127.00,VWS V14.01,2013-08-19 01:59:00,
2013-08-18 22:04:00,83.4,77.0,30.03,East,95,2.0,5.0,81,0.00,,BKN023,0.01,127.00,VWS V14.01,2013-08-19 02:04:00,
2013-08-18 22:09:00,83.4,77.0,30.03,East,84,2.0,4.0,81,0.00,,BKN023,0.01,125.00,VWS V14.01,2013-08-19 02:09:00,
2013-08-18 22:14:00,83.4,77.0,30.03,East,82,1.0,4.0,81,0.00,,BKN023,0.01,125.00,VWS V14.01,2013-08-19 02:14:00,
2013-08-18 22:19:00,83.4,77.0,30.03,East,92,2.0,5.0,81,0.00,,BKN023,0.01,125.00,VWS V14.01,2013-08-19 02:19:00,
2013-08-18 22:24:00,83.4,77.0,30.04,East,90,1.0,5.0,81,0.00,,BKN023,0.01,127.00,VWS V14.01,2013-08-19 02:24:00,
2013-08-18 22:29:00,83.3,76.9,30.04,East,92,3.0,5.0,81,0.00,,BKN023,0.01,125.00,VWS V14.01,2013-08-19 02:29:00,
2013-08-18 22:34:00,83.3,77.2,30.04,ESE,111,3.0,8.0,82,0.00,,BKN023,0.01,125.00,VWS V14.01,2013-08-19 02:34:00,
2013-08-18 22:39:00,83.3,76.9,30.04,East,88,3.0,5.0,81,0.00,,BKN023,0.01,125.00,VWS V14.01,2013-08-19 02:39:00,
2013-08-18 22:44:00,83.3,77.2,30.04,ENE,71,3.0,3.0,82,0.00,,BKN023,0.01,125.00,VWS V14.01,2013-08-19 02:44:00,
2013-08-18 22:49:00,83.3,77.2,30.04,East,90,3.0,6.0,82,0.00,,BKN023,0.01,125.00,VWS V14.01,2013-08-19 02:49:00,
2013-08-18 22:54:00,83.2,77.1,30.04,ENE,57,2.0,4.0,82,0.00,,BKN023,0.01,125.00,VWS V14.01,2013-08-19 02:54:00,
2013-08-18 22:59:00,83.2,77.1,30.04,ESE,119,1.0,6.0,82,0.00,,BKN023,0.01,125.00,VWS V14.01,2013-08-19 02:59:00,
2013-08-18 23:04:00,83.2,77.1,30.04,East,94,2.0,3.0,82,0.00,,BKN023,0.01,125.00,VWS V14.01,2013-08-19 03:04:00,
2013-08-18 23:09:00,83.2,77.1,30.04,East,92,0.0,5.0,82,0.00,,BKN023,0.01,125.00,VWS V14.01,2013-08-19 03:09:00,
2013-08-18 23:14:00,83.1,77.0,30.04,East,92,0.0,4.0,82,0.00,,BKN023,0.01,125.00,VWS V14.01,2013-08-19 03:14:00,
2013-08-18 23:19:00,83.1,77.4,30.04,East,92,2.0,4.0,83,0.00,,BKN023,0.01,125.00,VWS V14.01,2013-08-19 03:19:00,
2013-08-18 23:24:00,83.1,77.4,30.04,East,96,0.0,5.0,83,0.00,,BKN023,0.01,125.00,VWS V14.01,2013-08-19 03:24:00,
2013-08-18 23:29:00,83.0,77.3,30.04,East,96,3.0,3.0,83,0.00,,BKN023,0.01,127.00,VWS V14.01,2013-08-19 03:29:00,
2013-08-18 23:34:00,83.0,77.3,30.04,East,96,0.0,2.0,83,0.00,,BKN023,0.01,125.00,VWS V14.01,2013-08-19 03:34:00,
2013-08-18 23:39:00,82.9,77.2,30.04,East,96,4.0,4.0,83,0.00,,BKN023,0.01,125.00,VWS V14.01,2013-08-19 03:39:00,
2013-08-18 23:44:00,82.9,77.2,30.04,East,96,1.0,3.0,83,0.00,,BKN023,0.01,125.00,VWS V14.01,2013-08-19 03:44:00,
2013-08-18 23:49:00,82.9,77.2,30.04,East,96,0.0,2.0,83,0.00,,BKN023,0.01,127.00,VWS V14.01,2013-08-19 03:49:00,
2013-08-18 23:54:00,82.8,77.1,30.04,East,96,2.0,3.0,83,0.00,,BKN023,0.01,125.00,VWS V14.01,2013-08-19 03:54:00,
2013-08-18 23:59:00,82.8,77.1,30.04,East,84,0.0,5.0,83,0.00,,BKN023,0.01,125.00,VWS V14.01,2013-08-19 03:59:00,